Database contains data from 2013-07-07 to 2026-08-31.
94 measurements (5-min interval)
| Time | Temp Β°C | Dew Β°C | Humid % | Wind m/s | Gust m/s | Dir Β° | Rain mm | Press. hPa | UV | Solar W/mΒ² |
|---|---|---|---|---|---|---|---|---|---|---|
| 00:00 | 13,1 | 11,7 | 91 | 0,4 | 1,3 | 315 | 0,00 | 1 003,6 | 0,0 | 0 |
| 00:05 | 13,1 | 11,5 | 90 | 0,0 | 0,9 | β | 0,00 | 1 003,6 | 0,0 | 0 |
| 00:10 | 13,1 | 11,7 | 91 | 0,0 | 0,9 | β | 0,00 | 1 003,6 | 0,0 | 0 |
| 00:15 | 13,1 | 11,7 | 91 | 0,0 | 0,4 | β | 0,00 | 1 003,6 | 0,0 | 0 |
| 00:20 | 13,1 | 11,7 | 91 | 0,0 | 0,0 | β | 0,00 | 1 003,6 | 0,0 | 0 |
| 00:25 | 13,1 | 11,7 | 91 | 0,0 | 0,0 | β | 0,00 | 1 003,6 | 0,0 | 0 |
| 00:30 | 13,1 | 11,6 | 91 | 0,0 | 0,4 | β | 0,00 | 1 003,7 | 0,0 | 0 |
| 00:35 | 13,1 | 11,6 | 91 | 0,0 | 0,9 | β | 0,00 | 1 003,7 | 0,0 | 0 |
| 00:40 | 13,1 | 11,6 | 91 | 0,0 | 0,9 | β | 0,00 | 1 003,7 | 0,0 | 0 |
| 00:45 | 13,0 | 11,6 | 91 | 0,4 | 2,2 | 315 | 0,00 | 1 003,7 | 0,0 | 0 |
| 00:50 | 13,0 | 11,7 | 92 | 0,0 | 0,9 | β | 0,00 | 1 003,7 | 0,0 | 0 |
| 00:55 | 12,9 | 11,6 | 92 | 0,4 | 1,8 | 315 | 0,00 | 1 003,7 | 0,0 | 0 |
| 01:00 | 12,8 | 11,7 | 93 | 0,4 | 1,3 | 315 | 0,00 | 1 003,8 | 0,0 | 0 |
| 01:05 | 12,8 | 11,7 | 93 | 0,0 | 0,9 | β | 0,00 | 1 003,8 | 0,0 | 0 |
| 01:10 | 12,7 | 11,6 | 93 | 0,0 | 0,9 | β | 0,00 | 1 003,8 | 0,0 | 0 |
| 01:15 | 12,7 | 11,6 | 93 | 0,0 | 0,9 | β | 0,00 | 1 003,8 | 0,0 | 0 |
| 01:20 | 12,7 | 11,7 | 94 | 0,0 | 0,9 | β | 0,00 | 1 003,8 | 0,0 | 0 |
| 01:25 | 12,6 | 11,7 | 94 | 0,0 | 1,3 | β | 0,00 | 1 003,8 | 0,0 | 0 |
| 01:30 | 12,6 | 11,7 | 94 | 0,0 | 1,3 | β | 0,00 | 1 003,8 | 0,0 | 0 |
| 01:35 | 12,6 | 11,7 | 94 | 0,4 | 0,9 | 315 | 0,25 | 1 003,8 | 0,0 | 0 |
| 01:40 | 12,6 | 11,6 | 94 | 0,0 | 0,4 | β | 0,00 | 1 003,8 | 0,0 | 0 |
| 01:45 | 12,5 | 11,6 | 94 | 0,4 | 1,3 | 338 | 0,00 | 1 003,9 | 0,0 | 0 |
| 01:50 | 12,4 | 11,5 | 94 | 0,4 | 2,2 | 338 | 0,00 | 1 003,9 | 0,0 | 0 |
| 01:55 | 12,4 | 11,5 | 94 | 0,4 | 1,3 | 338 | 0,25 | 1 003,9 | 0,0 | 0 |
| 02:00 | 12,4 | 11,4 | 94 | 0,4 | 2,2 | 338 | 0,00 | 1 003,9 | 0,0 | 0 |
| 02:05 | 12,4 | 11,4 | 94 | 0,4 | 1,8 | 338 | 0,00 | 1 003,9 | 0,0 | 0 |
| 02:10 | 12,3 | 11,3 | 94 | 0,9 | 2,2 | 338 | 0,00 | 1 003,9 | 0,0 | 0 |
| 02:15 | 12,2 | 11,3 | 94 | 0,4 | 1,8 | 338 | 0,00 | 1 004,0 | 0,0 | 0 |
| 02:20 | 12,2 | 11,3 | 94 | 0,0 | 1,3 | β | 0,00 | 1 004,0 | 0,0 | 0 |
| 02:25 | 12,2 | 11,3 | 94 | 0,0 | 0,9 | β | 0,00 | 1 004,0 | 0,0 | 0 |
| 02:30 | 12,3 | 11,6 | 95 | 0,0 | 0,0 | β | 0,00 | 1 004,0 | 0,0 | 0 |
| 02:35 | 12,4 | 11,6 | 95 | 0,0 | 0,0 | β | 0,00 | 1 004,0 | 0,0 | 0 |
| 02:40 | 12,3 | 11,3 | 94 | 0,0 | 0,0 | β | 0,00 | 1 004,0 | 0,0 | 0 |
| 02:45 | 12,2 | 11,4 | 95 | 0,0 | 0,0 | β | 0,00 | 1 004,0 | 0,0 | 0 |
| 02:50 | 12,2 | 11,4 | 95 | 0,0 | 0,0 | β | 0,00 | 1 004,0 | 0,0 | 0 |
| 02:55 | 12,2 | 11,4 | 95 | 0,0 | 0,0 | β | 0,00 | 1 004,0 | 0,0 | 0 |
| 03:00 | 12,2 | 11,4 | 95 | 0,0 | 0,0 | β | 0,00 | 1 004,0 | 0,0 | 0 |
| 03:05 | 12,2 | 11,4 | 95 | 0,0 | 0,0 | β | 0,00 | 1 004,0 | 0,0 | 0 |
| 03:10 | 12,2 | 11,4 | 95 | 0,0 | 0,0 | β | 0,00 | 1 004,0 | 0,0 | 0 |
| 03:15 | 12,2 | 11,4 | 95 | 0,0 | 0,0 | β | 0,00 | 1 004,0 | 0,0 | 0 |
| 03:20 | 12,2 | 11,4 | 95 | 0,0 | 0,0 | β | 0,00 | 1 004,0 | 0,0 | 0 |
| 03:25 | 12,2 | 11,4 | 95 | 0,0 | 0,0 | β | 0,00 | 1 004,0 | 0,0 | 0 |
| 03:30 | 12,2 | 11,4 | 95 | 0,0 | 0,0 | β | 0,00 | 1 004,0 | 0,0 | 0 |
| 03:35 | 12,3 | 11,5 | 95 | 0,0 | 0,0 | β | 0,00 | 1 004,0 | 0,0 | 0 |
| 03:40 | 12,3 | 11,5 | 95 | 0,0 | 0,0 | β | 0,00 | 1 004,0 | 0,0 | 0 |
| 03:45 | 12,2 | 11,4 | 95 | 0,0 | 0,0 | β | 0,00 | 1 003,8 | 0,0 | 0 |
| 03:50 | 12,2 | 11,4 | 95 | 0,0 | 0,0 | β | 0,00 | 1 003,8 | 0,0 | 0 |
| 03:55 | 12,2 | 11,5 | 96 | 0,0 | 0,0 | β | 0,00 | 1 003,8 | 0,0 | 0 |
| 04:00 | 12,2 | 11,6 | 96 | 0,0 | 0,0 | β | 0,00 | 1 003,7 | 0,0 | 0 |
| 04:05 | 12,2 | 11,6 | 96 | 0,0 | 0,0 | β | 0,00 | 1 003,7 | 0,0 | 0 |
| 04:10 | 12,2 | 11,4 | 95 | 0,0 | 0,0 | β | 0,00 | 1 003,7 | 0,0 | 0 |
| 04:15 | 12,1 | 11,5 | 96 | 0,0 | 0,0 | β | 0,00 | 1 003,6 | 0,0 | 0 |
| 04:20 | 12,1 | 11,5 | 96 | 0,0 | 0,0 | β | 0,00 | 1 003,6 | 0,0 | 0 |
| 04:25 | 12,1 | 11,4 | 96 | 0,0 | 0,0 | β | 0,00 | 1 003,6 | 0,0 | 0 |
| 04:30 | 12,1 | 11,4 | 96 | 0,0 | 0,0 | β | 0,00 | 1 003,6 | 0,0 | 0 |
| 04:35 | 12,1 | 11,5 | 96 | 0,0 | 0,0 | β | 0,00 | 1 003,6 | 0,0 | 0 |
| 04:40 | 12,2 | 11,5 | 96 | 0,0 | 0,0 | β | 0,00 | 1 003,6 | 0,0 | 0 |
| 04:45 | 12,2 | 11,5 | 96 | 0,0 | 0,0 | β | 0,00 | 1 003,6 | 0,0 | 0 |
| 04:50 | 12,2 | 11,5 | 96 | 0,0 | 0,0 | β | 0,00 | 1 003,6 | 0,0 | 0 |
| 04:55 | 12,2 | 11,5 | 96 | 0,0 | 0,0 | β | 0,00 | 1 003,6 | 0,0 | 0 |
| 05:00 | 12,1 | 11,5 | 96 | 0,0 | 0,0 | β | 0,00 | 1 003,5 | 0,0 | 0 |
| 05:05 | 12,0 | 11,4 | 96 | 0,0 | 0,0 | β | 0,00 | 1 003,5 | 0,0 | 0 |
| 05:10 | 11,9 | 11,3 | 96 | 0,0 | 0,0 | β | 0,00 | 1 003,5 | 0,0 | 0 |
| 05:15 | 11,9 | 11,3 | 96 | 0,0 | 0,9 | β | 0,00 | 1 003,5 | 0,0 | 0 |
| 05:20 | 11,8 | 11,2 | 96 | 0,4 | 0,9 | 338 | 0,00 | 1 003,5 | 0,0 | 0 |
| 05:25 | 11,8 | 11,2 | 96 | 0,0 | 0,4 | β | 0,00 | 1 003,5 | 0,0 | 0 |
| 05:30 | 11,7 | 11,0 | 96 | 0,0 | 0,0 | β | 0,00 | 1 003,5 | 0,0 | 0 |
| 05:35 | 11,6 | 11,0 | 96 | 0,0 | 0,0 | β | 0,00 | 1 003,5 | 0,0 | 0 |
| 05:40 | 11,6 | 11,0 | 96 | 0,0 | 0,4 | β | 0,00 | 1 003,5 | 0,0 | 0 |
| 05:45 | 11,6 | 11,0 | 96 | 0,0 | 0,4 | β | 0,00 | 1 003,6 | 0,0 | 0 |
| 05:50 | 11,6 | 11,0 | 96 | 0,0 | 0,0 | β | 0,00 | 1 003,6 | 0,0 | 0 |
| 05:55 | 11,6 | 11,0 | 96 | 0,0 | 0,0 | β | 0,00 | 1 003,6 | 0,0 | 0 |
| 06:00 | 11,6 | 11,0 | 96 | 0,0 | 0,4 | β | 0,00 | 1 003,6 | 0,0 | 0 |
| 06:05 | 11,6 | 11,0 | 96 | 0,0 | 0,9 | β | 0,00 | 1 003,6 | 0,0 | 0 |
| 06:10 | 11,6 | 10,9 | 96 | 0,0 | 0,4 | β | 0,00 | 1 003,6 | 0,0 | 0 |
| 06:15 | 11,4 | 10,8 | 96 | 0,0 | 0,0 | β | 0,00 | 1 003,6 | 0,0 | 0 |
| 06:20 | 11,4 | 10,8 | 96 | 0,0 | 0,0 | β | 0,00 | 1 003,6 | 0,0 | 0 |
| 06:25 | 11,3 | 10,7 | 96 | 0,0 | 0,0 | β | 0,00 | 1 003,6 | 0,0 | 0 |
| 06:30 | 11,3 | 10,7 | 96 | 0,0 | 0,0 | β | 0,00 | 1 003,6 | 0,0 | 0 |
| 06:35 | 11,3 | 10,7 | 96 | 0,0 | 0,0 | β | 0,00 | 1 003,6 | 0,0 | 0 |
| 06:40 | 11,3 | 10,7 | 96 | 0,0 | 0,0 | β | 0,00 | 1 003,6 | 0,0 | 2 |
| 06:45 | 11,3 | 10,7 | 96 | 0,0 | 0,0 | β | 0,00 | 1 003,6 | 0,0 | 6 |
| 06:50 | 11,3 | 10,7 | 96 | 0,0 | 0,0 | β | 0,00 | 1 003,6 | 0,0 | 9 |
| 06:55 | 11,3 | 10,7 | 96 | 0,0 | 0,0 | β | 0,00 | 1 003,6 | 0,0 | 14 |
| 07:00 | 11,3 | 10,7 | 96 | 0,0 | 0,0 | β | 0,00 | 1 003,7 | 0,0 | 19 |
| 07:05 | 11,3 | 10,7 | 96 | 0,0 | 0,0 | β | 0,00 | 1 003,7 | 0,0 | 24 |
| 07:10 | 11,4 | 10,8 | 96 | 0,0 | 0,0 | β | 0,00 | 1 003,7 | 0,0 | 34 |
| 07:15 | 11,5 | 10,9 | 96 | 0,0 | 0,0 | β | 0,00 | 1 003,7 | 0,0 | 46 |
| 07:20 | 11,7 | 11,0 | 96 | 0,0 | 0,0 | β | 0,00 | 1 003,7 | 0,0 | 78 |
| 07:25 | 11,8 | 11,2 | 96 | 0,0 | 0,0 | β | 0,00 | 1 003,7 | 0,0 | 72 |
| 07:30 | 11,9 | 11,3 | 96 | 0,0 | 0,0 | β | 0,00 | 1 003,6 | 0,0 | 73 |
| 07:35 | 12,0 | 11,4 | 96 | 0,0 | 0,0 | β | 0,00 | 1 003,6 | 0,4 | 143 |
| 07:40 | 12,1 | 11,4 | 96 | 0,0 | 0,0 | β | 0,00 | 1 003,6 | 0,5 | 144 |
| 07:45 | 12,1 | 11,4 | 96 | 0,0 | 0,0 | β | 0,00 | 1 003,6 | 0,5 | 149 |